Regional Weather Roundup
Issued by NWS New Orleans/Baton Rouge, LA

Home | Current Version | Previous Version | Text Only | Print | Product List | Glossary On
Versions: 1 2 3 4 5 6 7 8 9 10 11 12 13 14 15 16 17 18 19 20 21 22 23 24 25 26 27 28 29 30 31 32 33 34 35 36 37 38 39 40 41 42 43 44 45 46 47 48 49 50
000
ASUS44 KLIX 011101
RWRLIX
NEW ORLEANS REGIONAL WEATHER ROUNDUP
NATIONAL WEATHER SERVICE NEW ORLEANS LA
500 AM CST SUN MAR 01 2015

NOTE: "FAIR" INDICATES FEW OR NO CLOUDS BELOW 12,000 FEET WITH NO
      SIGNIFICANT WEATHER AND/OR OBSTRUCTIONS TO VISIBILITY.
      SKY/WX - SKY CONDITION AND SIGNIFICANT WEATHER.
      TMP - AIR TEMPERATURE.     DP    - DEWPOINT TEMPERATURE.
      RH  - RELATIVE HUMIDITY.   PRES  - PRESSURE.
      HI  - HEAT INDEX.          WCI   - WIND CHILL INDEX.

*  THESE STATIONS ARE NOT NWS OR FAA STATIONS AND ARE NOT UNDER
   NWS QUALITY CONTROL.

LAZ038-040-048-061>063-065>067-069-011200-
SOUTHEAST LOUISIANA

CITY           SKY/WX    TMP DP  RH WIND       PRES   REMARKS
N.O. AUDUBON     N/A     58  58 100 MISG        N/A
N.O. INTL ARPT CLOUDY    57  55  93 E7        30.29R FOG
N.O. LAKEFRONT FOG       57  54  89 E13       30.30R VSB 1
SLIDELL        CLOUDY    54  53  97 VRB7      30.31R FOG
BATON ROUGE    CLOUDY    55  54  96 E10       30.27R FOG
BOOTHVILLE     CLOUDY    61  60  97 E8        30.28R
BELLE CHASSE   CLOUDY    59  56  89 E9        30.29R FOG
BOGALUSA*        N/A     57  52  83 SE3       30.33R
GALLIANO*      NOT AVBL
NEW ROADS*     NOT AVBL
GONZALES*      NOT AVBL
HAMMOND*       NOT AVBL
HOUMA*         CLOUDY    60  59  97 E9        30.27R
PORT FOURCHON* CLOUDY    61  59  94 E8        30.30R

$$

MSZ070-080>082-011200-
SOUTHERN MISSISSIPPI

CITY           SKY/WX    TMP DP  RH WIND       PRES   REMARKS
MCCOMB         CLOUDY    54  52  93 SE8       30.29R
GULFPORT       CLOUDY    54  51  90 E10       30.31S
BILOXI         NOT AVBL
PASCAGOULA     CLOUDY    52  50  93 E7        30.34R

$$

COASTAL OBSERVATIONS
LAKE AND NEARSHORE STATIONS

STATION/POSITION TIME  TEMP    WIND        PRES    WAVE
                       AIR SEA DIR/SP/G            HT/PER
                 (UTC) (F)     (DEG/KT/KT) (MB)    (FT/S)
PASCAGOULA       1022   52      80/ 15/ 19 1026.1
WAVELAND YACHT   1022   52 52  100/ 16/ 21 1025.6
GRAND ISLE       1022   60 57   90/  6/ 10 1025.1
SOUTHWEST PASS   1022   59 48   90/ 16/ 16 1024.8
NEW CANAL        1022   55     100/  2/  6 1025.8
SHELL BEACH      1022   57 53   90/ 13/ 18 1024.9

OFFSHORE STATIONS

STATION/POSITION TIME  TEMP    WIND        PRES    WAVE
                       AIR SEA DIR/SP/G            HT/PER
                 (UTC) (F)     (DEG/KT/KT) (MB)    (FT/S)
64 S DAUPHIN ISL 1009   65 71  100/ 17/ 21 1026.3    7/ 8

$$



USA.gov is the U.S. government's official web portal to all federal, state and local government web resources and services.